ROMMA est une association bénévole à but non lucratif. Votre soutien est indispensable : ADHERER à ROMMA ou FAIRE un DON

Granges-lès-Beaumont - (26, Drôme)

Drôme des Collines (155 m)   Longitude: 04°58'E   Latitude: 45°03'N Station partenaire n°123
 

Détail journalier du     <<     >>

Température Precipitation Humidité Pression Vent Dir Rafale Dir. rafale Ensol.
Heure (°C) (mm) (%) (hPa) (km/h) (km/h) (min)
01:00 2.908310184ENE10NO0
02:00 2.108610194N35NNO0
03:00 2.8087101912N40NNE0
04:00 2.108810205E11NO0
05:00 2.40.28810206NNO26NO0
06:00 2.208910213ENE11E0
07:00 1.908910213ENE6ENE0
08:00 1.308910221---6SO0
09:00 1.209010234SO10NNE0
10:00 2.209010241NE6NE0
11:00 7.40.28110256O21NNE20
12:00 8.9070102513NE23NNE30
13:00 6.9075102514NNO26E0
14:00 6.5079102519ENE32E0
15:00 6.8079102515ENE29E0
16:00 6.5080102614NNE29NNO0
17:00 5.60.283102716NNE35NE0
18:00 5.208410288NNE19NE0
19:00 3.908610283NE8NNE0
20:00 3.908710295NNE11NNO0
21:00 4.10.28810306NNE10NO0
22:00 4.208810308NNO16NNE0
23:00 4.3087103110NNE19N0
minuit 3.608710319N21NNE0

Graphique du 11-02-2019

 

Serveur OMMA